Theta_e
317 317 320 320 317 312 316 317 317 326 336 333 332 334 333 335 338 336 336 338 334 337 337 338 338 338 335 328 330 324 322 324 328 330 330 329 328 326 325 326 324 326 326 326 325 324 323 323 324
316 319 320 312 315 315 317 316 318 322 332 336 336 337 338 339 340 339 340 337 335 336 335 337 339 338 336 329 330 327 322 324 326 328 328 326 324 324 325 326 324 324 324 325 324 323 323 323 323
319 321 317 314 313 319 320 321 328 337 338 338 339 337 337 339 340 339 340 338 336 335 334 337 339 338 336 329 330 329 323 324 325 326 326 325 324 325 324 326 325 325 324 325 324 323 323 323 324
321 318 314 319 323 320 320 322 325 334 334 340 340 342 337 337 339 340 340 336 335 333 336 338 339 338 336 330 329 330 324 324 325 324 323 324 324 325 327 327 328 327 326 324 323 323 323 322 322
320 313 318 320 320 319 319 320 319 324 332 342 344 349 342 338 339 340 339 335 331 336 337 339 339 338 337 329 329 329 325 324 324 322 321 321 323 324 325 329 330 328 325 324 323 322 321 321 321
317 313 319 321 321 320 320 320 322 327 343 346 347 347 342 339 340 340 337 333 332 335 339 339 339 338 336 329 328 327 325 324 323 322 320 320 322 323 326 326 329 328 325 322 321 321 321 322 322
318 315 318 320 320 320 322 319 324 332 346 346 345 345 339 338 338 338 335 332 335 336 339 340 339 338 336 328 328 326 325 324 323 321 320 320 321 321 322 323 325 325 323 321 321 320 320 320 325
313 313 319 317 320 321 320 321 324 335 336 343 340 344 343 336 337 335 334 334 335 337 339 338 338 338 335 329 328 325 323 323 323 322 322 321 321 321 321 321 321 320 319 319 320 320 319 320 323
313 315 317 320 322 322 320 323 321 331 341 342 342 340 338 338 337 336 336 336 336 338 338 337 337 337 334 330 329 325 324 324 324 324 324 324 322 322 321 320 319 320 320 319 319 319 320 325 331
316 315 318 317 321 322 321 322 321 335 342 345 345 339 338 338 337 337 336 336 335 337 338 336 336 336 333 331 330 326 324 325 325 325 326 325 324 324 323 323 321 326 325 322 321 321 324 333 336
317 319 318 320 319 318 319 320 320 325 329 341 345 340 340 338 338 338 337 336 335 333 334 334 334 335 333 332 330 327 325 326 327 327 328 327 326 326 327 328 332 332 330 327 325 328 331 333 335
320 318 319 319 320 319 321 321 321 320 322 321 340 338 341 341 339 339 339 337 336 334 332 332 333 333 333 332 330 326 326 327 328 329 330 329 328 329 334 334 335 335 333 331 329 331 332 334 337
319 319 319 319 319 318 318 320 321 320 318 320 340 339 340 342 342 341 340 339 338 336 333 331 332 332 333 332 330 327 326 327 328 330 331 331 330 331 336 337 337 336 335 332 332 334 336 336 337
318 320 319 319 320 319 320 320 321 321 318 332 342 340 339 341 342 344 344 342 340 338 336 333 331 331 331 331 330 327 327 328 329 330 331 332 332 331 336 339 337 336 336 334 335 337 337 337 335
320 320 319 320 321 321 318 320 319 319 318 338 344 343 340 340 342 342 344 344 342 340 338 337 335 331 330 330 329 328 328 328 330 331 332 333 334 333 335 339 339 337 338 337 337 337 337 336 327
320 319 320 321 321 321 321 322 320 319 318 318 336 341 343 341 341 342 342 344 344 343 342 342 340 336 331 330 330 329 329 330 330 331 332 333 335 336 338 340 339 338 338 337 337 337 336 327 321
316 319 320 320 319 321 320 320 319 318 317 317 316 330 341 342 341 342 342 342 344 344 344 343 342 340 334 332 333 333 332 332 332 332 333 334 336 338 340 341 338 338 338 337 337 336 330 322 319
319 320 318 319 318 318 317 317 315 316 316 315 315 314 328 339 341 342 342 342 342 344 344 344 343 341 337 337 337 336 337 337 337 337 337 337 338 341 342 341 338 338 337 337 335 333 322 320 317
318 318 316 315 316 316 316 314 314 314 314 314 314 315 313 322 334 338 341 342 342 342 344 344 344 344 342 340 340 340 339 340 340 341 340 339 339 340 341 340 337 336 336 335 330 323 320 314 311
318 318 317 315 315 316 315 315 315 314 315 314 315 315 315 315 314 317 334 339 340 341 343 343 344 344 344 342 342 341 341 341 342 342 341 340 340 340 341 339 337 336 336 332 325 322 316 312 308
318 319 318 316 316 315 316 317 316 315 314 315 314 315 315 315 316 316 320 325 333 338 340 342 343 344 344 344 342 342 342 341 341 342 343 342 340 339 340 339 337 336 336 332 324 320 320 310 307
314 315 316 316 316 315 315 316 316 315 315 315 314 313 314 315 314 315 316 315 322 331 338 340 343 343 344 344 343 342 342 341 341 341 341 341 339 339 340 338 336 336 333 328 322 320 317 309 307
315 316 316 315 315 315 315 315 317 315 314 313 314 313 313 313 313 314 315 316 318 326 334 339 341 342 343 344 343 342 341 341 340 340 339 340 340 340 339 338 336 333 328 322 320 316 309 306 305
316 317 318 318 320 323 316 316 317 316 315 314 314 314 313 313 313 312 314 317 316 321 332 338 340 341 341 342 343 341 341 341 339 339 337 337 339 339 338 337 334 329 324 320 317 312 307 305 304
316 317 320 321 324 325 320 316 316 315 314 314 314 313 313 312 312 312 312 311 315 319 331 338 340 340 340 340 340 341 341 340 338 338 336 335 334 336 337 334 327 323 320 318 315 309 307 305 304
315 317 320 323 323 321 320 323 321 318 317 316 315 314 315 315 315 311 311 310 312 314 326 338 340 340 340 339 339 339 340 339 337 336 335 333 332 329 329 327 322 321 319 315 311 308 306 306 306
316 317 316 318 318 322 320 319 318 318 318 317 316 317 317 318 318 315 315 315 316 317 316 329 339 339 340 340 339 339 339 338 336 335 334 331 329 327 325 323 319 318 316 312 309 307 306 306 305
316 315 319 320 325 321 319 320 321 319 319 319 317 317 317 316 316 315 316 315 318 319 318 318 333 339 340 340 339 339 339 338 335 335 332 330 329 328 323 320 317 314 310 309 308 307 306 306 306
314 318 318 319 321 325 325 320 315 317 317 315 314 318 317 317 317 317 316 317 317 319 320 319 325 339 340 340 340 339 338 336 334 332 331 330 326 323 320 317 314 310 309 308 307 306 305 305 305
311 315 319 318 319 321 324 321 317 314 310 309 314 315 315 316 317 317 317 316 316 319 324 325 327 339 340 341 340 339 337 333 333 329 328 327 323 319 318 314 312 309 308 307 306 305 305 304 303
Wind_Speed
6 7 4 4 4 5 3 6 3 3 4 4 8 4 7 1 4 4 2 21 31 37 33 30 28 27 25 23 21 20 20 20 19 18 17 16 15 15 15 14 14 15 15 15 15 14 13 12 12
6 4 3 2 4 3 5 4 5 6 4 8 5 2 2 1 3 6 14 19 33 36 33 31 29 28 26 24 22 20 20 20 19 17 15 14 14 14 13 13 13 13 13 13 12 11 11 10 10
5 0 3 4 3 2 4 3 6 2 10 8 5 1 1 4 2 12 11 26 37 33 32 31 30 29 26 24 22 20 20 20 19 17 15 13 13 12 12 12 11 11 11 10 10 9 8 8 8
1 5 4 3 3 6 5 5 3 6 5 3 5 4 1 5 11 13 29 32 35 32 31 31 31 29 26 24 22 20 19 20 19 17 15 12 11 11 10 10 9 8 8 8 7 6 6 7 6
4 3 4 3 5 6 6 8 9 9 4 6 5 5 3 3 6 22 31 37 35 32 31 31 30 28 26 24 22 20 19 19 18 17 15 12 11 10 10 9 8 7 6 5 5 5 5 5 5
3 4 4 1 5 6 7 5 7 7 3 4 3 4 2 7 21 27 34 38 34 33 31 31 29 27 26 25 22 20 19 18 17 16 15 13 12 10 9 8 7 6 4 4 3 3 4 4 5
5 4 3 3 4 6 5 8 3 4 8 4 5 4 2 3 17 32 34 34 33 32 33 32 29 27 25 25 23 21 19 18 17 16 15 14 12 11 9 8 6 5 3 2 2 2 3 4 5
5 4 1 4 3 5 5 8 3 2 3 4 6 5 6 7 24 29 29 29 30 31 33 32 30 28 27 25 23 22 21 19 17 16 14 14 13 11 10 8 6 5 3 2 1 2 2 3 4
3 4 2 4 3 6 3 7 7 2 6 2 3 6 5 32 30 29 26 26 29 31 33 33 32 30 28 26 25 23 21 20 18 16 14 13 12 11 10 8 6 4 3 2 1 0 1 3 4
4 4 7 5 2 5 8 2 3 3 3 2 4 7 24 29 29 25 23 22 26 34 34 34 33 32 30 29 27 25 24 22 21 19 16 15 12 11 9 8 7 5 3 2 2 2 2 2 4
4 5 5 6 7 8 6 6 2 6 3 5 5 14 16 21 19 18 21 28 34 37 37 36 35 33 33 32 30 29 27 25 23 21 19 16 14 13 11 10 8 6 5 4 5 4 3 1 1
2 6 4 4 2 6 5 4 4 5 5 4 11 20 16 17 16 22 21 24 30 32 37 36 36 36 35 33 33 32 30 28 27 24 22 20 18 17 14 12 10 9 7 6 7 6 5 3 2
4 4 4 6 8 5 6 8 4 5 8 1 9 16 18 16 17 22 22 23 30 35 37 39 37 37 37 36 35 34 33 31 29 27 25 22 21 20 17 15 13 12 11 10 8 7 5 4 3
3 4 7 5 7 5 4 5 2 6 6 5 13 17 16 19 22 18 20 25 31 35 42 41 41 40 40 40 38 37 35 33 31 29 28 25 24 22 20 18 15 15 14 12 9 6 5 5 4
5 7 5 4 4 5 5 6 8 7 5 8 11 15 15 19 20 25 35 32 39 44 44 45 45 45 46 45 43 41 39 37 35 33 30 28 26 25 22 20 19 17 15 13 12 11 8 6 5
4 1 4 4 1 4 7 10 10 8 4 7 11 9 14 18 22 32 30 35 37 34 45 48 47 48 49 49 47 45 43 40 39 36 33 31 29 27 23 21 22 22 18 17 16 14 12 10 8
5 4 5 8 6 4 7 5 5 6 4 9 7 10 14 16 18 27 30 36 37 44 42 43 45 48 51 46 42 41 40 41 40 38 36 34 33 30 27 25 23 21 21 21 18 17 15 12 9
6 5 5 8 3 3 10 10 8 10 5 9 11 8 12 17 22 34 38 39 38 41 39 40 42 42 44 36 36 36 37 41 41 40 37 34 34 31 27 29 27 24 22 21 20 20 16 13 10
4 5 8 3 1 5 6 10 10 9 12 7 10 13 10 17 23 32 38 37 35 32 33 38 38 42 38 36 35 34 38 39 39 41 39 36 35 35 30 32 30 27 26 26 24 21 17 11 10
6 8 17 8 5 3 12 19 18 8 12 10 12 13 12 6 10 17 31 37 37 36 40 35 41 39 44 41 41 33 31 32 35 40 40 39 38 37 34 35 33 31 29 28 27 24 17 9 10
11 14 16 10 6 7 5 18 20 15 6 10 8 11 9 11 13 9 13 30 39 38 36 42 44 47 48 40 33 27 26 24 33 41 43 42 39 40 39 38 35 33 33 33 30 26 22 15 10
11 4 11 10 2 10 4 8 21 8 9 7 11 8 10 11 9 9 8 14 31 41 44 44 44 45 45 43 38 40 39 35 40 35 37 43 39 40 41 39 37 36 35 34 32 27 24 21 15
8 3 6 6 9 7 14 5 21 2 9 8 9 11 9 10 10 11 10 16 29 31 37 44 44 41 41 45 45 42 38 35 29 29 34 40 41 41 41 40 39 38 37 34 32 27 25 22 19
7 3 4 6 3 7 20 8 26 14 12 5 5 9 11 11 10 10 16 22 15 28 32 30 30 39 44 45 46 45 43 35 30 33 32 36 43 44 42 42 42 41 39 36 31 27 24 21 17
6 1 3 4 6 11 14 9 24 5 9 8 10 10 10 10 10 11 10 8 19 17 32 34 36 38 42 44 45 46 45 40 36 36 35 36 41 45 45 44 45 42 39 34 30 27 23 20 18
5 6 5 5 4 11 6 11 21 21 17 14 9 9 13 15 13 9 9 8 15 17 25 31 33 39 37 41 46 46 43 40 38 39 35 37 41 39 45 45 43 41 38 34 31 27 23 20 17
3 3 3 4 9 8 7 9 16 17 11 9 10 14 18 19 20 16 14 17 22 24 24 30 37 42 41 48 43 43 43 41 40 37 39 38 36 41 44 45 42 41 39 36 32 28 24 19 17
3 3 3 1 4 5 7 7 12 14 14 16 13 15 17 16 17 14 13 14 23 27 31 28 38 43 46 43 42 43 44 41 38 42 42 42 44 46 45 46 43 41 38 35 31 27 22 21 17
5 2 3 2 2 3 5 5 8 5 8 13 16 15 15 18 19 18 17 25 30 29 30 32 33 40 37 38 39 39 39 40 41 42 45 47 47 46 48 49 47 45 40 36 32 27 24 20 18
2 3 3 3 3 3 4 10 8 5 17 17 15 18 18 18 16 17 20 19 19 26 33 32 30 35 39 39 38 37 36 38 43 42 43 45 45 44 48 48 48 46 39 34 31 27 25 23 20
Wind_Direction
324 332 316 26 40 61 271 276 276 15 114 200 128 155 201 116 175 211 132 155 171 164 163 166 168 165 161 155 150 147 147 145 140 136 132 130 127 124 123 122 119 118 116 112 108 105 102 101 97
342 358 47 78 77 38 285 254 258 223 157 112 114 91 234 199 116 116 124 165 170 164 164 167 168 166 163 160 156 153 154 151 146 143 139 135 132 129 127 127 124 121 118 116 114 108 104 99 95
347 353 78 87 101 209 271 258 3 315 151 126 133 97 224 181 70 154 160 162 165 164 165 167 168 167 165 163 162 159 159 157 153 148 145 141 138 135 133 132 129 125 122 120 115 109 104 98 90
348 19 38 80 250 256 224 274 39 358 335 322 149 113 54 264 163 166 159 164 165 165 167 167 168 168 167 166 167 165 162 162 158 152 149 147 145 142 139 136 133 128 124 122 118 111 101 92 83
56 58 55 26 277 262 247 253 167 202 220 184 170 161 79 19 166 156 162 166 167 166 168 168 170 170 170 170 171 170 168 166 164 158 155 155 154 152 150 149 143 134 131 125 114 102 84 73 68
43 101 54 307 258 276 280 253 165 183 130 151 110 88 59 149 153 159 164 167 170 167 168 169 173 172 174 175 175 174 173 172 169 166 162 161 162 160 161 161 157 151 137 126 114 87 65 57 54
117 88 197 246 263 308 278 306 109 170 149 175 154 90 20 193 161 159 164 169 170 170 169 171 173 176 178 178 178 177 176 178 177 174 170 169 170 170 170 170 169 167 156 137 99 74 58 52 53
109 97 192 250 272 281 285 336 42 128 190 104 144 168 192 187 160 159 167 171 173 173 173 174 176 180 181 181 183 181 182 181 182 182 180 177 176 177 179 180 180 178 166 140 82 56 44 44 40
112 62 214 238 241 281 328 0 348 340 127 120 175 159 188 154 160 156 163 170 177 179 181 180 181 184 184 186 186 187 187 186 187 189 189 188 187 187 187 186 182 179 181 167 152 116 66 66 47
111 143 223 219 259 319 302 347 318 62 331 343 76 68 127 150 158 159 166 174 180 184 187 187 187 187 187 189 190 190 191 192 193 195 196 197 198 198 197 196 191 191 194 198 185 179 141 93 76
172 194 234 271 274 261 269 303 142 118 234 231 199 147 147 157 168 173 179 181 186 190 189 191 193 192 192 192 193 194 195 196 198 201 202 201 203 203 203 202 203 207 208 195 186 176 182 225 283
298 238 221 281 323 312 264 294 307 153 223 255 178 164 156 171 181 182 186 187 187 193 195 196 197 195 197 198 198 199 200 201 202 204 206 207 207 207 207 213 220 228 225 198 202 212 234 261 299
235 256 231 271 286 252 294 268 227 234 236 183 150 164 173 182 192 195 191 190 192 194 197 200 201 201 200 202 204 204 205 206 208 209 209 212 213 213 214 218 226 231 229 228 234 233 245 215 228
269 278 283 262 268 253 247 268 296 255 169 143 164 183 185 188 195 186 186 193 197 198 202 202 204 206 207 206 208 209 210 211 213 214 215 216 218 220 221 222 228 232 235 236 229 230 208 212 227
283 308 320 262 238 236 179 287 233 249 122 171 195 192 195 206 191 196 196 197 199 204 203 205 207 207 210 211 211 212 214 214 216 218 218 219 221 219 226 230 229 230 231 222 222 208 209 207 180
344 359 331 286 105 254 161 258 268 275 232 240 209 209 208 210 205 208 203 206 207 203 205 208 207 210 212 214 214 213 215 216 218 220 221 221 220 220 225 230 232 233 216 204 205 203 205 183 168
1 256 268 300 230 238 204 244 269 316 182 269 207 210 211 220 222 221 213 210 208 210 208 208 208 209 211 211 213 215 218 219 221 221 221 222 219 221 227 230 219 211 194 204 210 202 194 181 169
199 225 255 248 315 341 296 272 279 289 272 257 277 212 222 221 220 216 218 215 214 212 211 211 208 208 207 205 208 215 218 223 223 223 222 219 216 217 227 219 210 205 204 204 202 198 188 190 182
191 231 248 240 344 356 277 298 284 287 288 265 273 278 208 225 232 222 220 221 219 213 210 209 204 208 199 198 200 206 211 216 221 224 224 219 219 218 220 212 212 207 204 204 197 187 188 177 183
231 247 261 288 249 250 299 287 283 266 269 250 247 267 266 224 226 231 227 219 216 214 208 208 208 203 203 201 204 207 208 213 217 222 222 222 222 217 215 212 210 206 201 197 196 197 184 182 189
228 231 257 263 335 264 281 282 284 269 255 281 246 244 272 258 265 233 209 219 212 215 209 208 208 206 206 204 198 200 203 215 215 218 221 222 222 220 217 212 211 206 203 200 200 201 211 181 182
244 193 254 276 291 272 146 279 280 290 259 251 280 257 258 273 265 257 228 203 215 218 219 215 211 207 206 199 195 195 199 205 212 209 211 216 217 214 215 211 210 207 203 203 201 203 211 203 181
261 326 275 262 258 286 255 248 272 215 260 256 259 275 270 261 271 272 247 233 222 228 219 214 211 206 205 200 201 197 203 211 208 206 208 212 212 214 211 211 208 205 201 202 203 200 201 202 192
306 309 309 261 60 280 265 208 279 251 263 237 259 272 269 288 285 286 287 290 259 229 223 224 217 210 204 200 201 200 203 202 200 198 199 202 210 209 211 210 210 204 200 200 201 202 199 197 198
208 226 291 233 185 234 239 258 253 237 278 266 281 287 299 292 292 289 286 294 285 252 225 216 209 213 210 205 202 204 204 200 198 195 197 194 199 206 208 207 205 201 199 198 196 196 194 192 190
198 188 190 229 207 265 189 210 242 261 272 292 298 285 296 307 307 289 294 281 271 270 242 215 212 219 211 208 209 206 203 201 200 197 198 199 198 200 204 204 205 203 196 195 193 192 189 186 184
302 251 245 266 268 273 255 284 294 284 297 308 304 307 297 295 296 293 314 318 312 310 291 241 219 221 212 209 208 206 200 198 196 194 200 201 200 202 204 202 202 199 193 192 190 186 184 183 177
197 222 316 289 299 240 246 227 247 288 298 301 332 332 324 320 317 306 302 303 304 303 303 278 239 223 215 209 205 205 202 195 191 196 196 202 204 206 202 197 200 196 191 189 185 180 176 172 165
342 349 341 306 224 241 276 259 242 310 34 348 323 311 306 307 309 304 298 297 294 298 303 292 249 224 215 207 204 203 203 193 191 195 199 204 205 201 200 196 195 194 189 184 180 174 167 163 159
156 222 183 201 305 275 273 269 271 24 342 332 311 298 301 304 308 305 303 303 296 299 305 294 253 220 210 203 199 201 201 189 194 196 199 204 203 199 196 193 193 191 186 181 174 165 161 159 155